When you browse on this site, cookies collect data to enhance your experience and personalize the content and advertising you see.
Visit our Privacy Policy to learn more. By continuing to use the site, you agree to this use of cookies and data.
  • In Spain
  • List of Countries
  • For 7 days
  • Water Temperature
  • Weather Map
  • Weather Widgets
  • user-avatar
    Login

    Hourly Weather Port Said

    Today, 21 October, Monday

    Time Temperature Precipitation Wind Pressure Humidity
    00:00 +23°C° 0 mm 5 mps 761 mmHg 70%
    01:00 +23°C° 0 mm 4 mps 761 mmHg 69%
    02:00 +22°C° 0 mm 4 mps 761 mmHg 74%
    03:00 +22°C° 0 mm 4 mps 761 mmHg 68%
    04:00 +24°C° 0 mm 3 mps 761 mmHg 63%
    05:00 +24°C° 0 mm 3 mps 761 mmHg 58%
    06:00 +25°C° 0 mm 3 mps 761 mmHg 53%
    07:00 +27°C° 0 mm 3 mps 761 mmHg 48%
    08:00 +28°C° 0 mm 3 mps 761 mmHg 43%
    09:00 +29°C° 0 mm 4 mps 761 mmHg 40%
    10:00 +32°C° 0 mm 4 mps 761 mmHg 38%
    11:00 +33°C° 0 mm 4 mps 761 mmHg 36%
    12:00 +33°C° 0 mm 5 mps 760 mmHg 38%
    13:00 +32°C° 0 mm 5 mps 760 mmHg 41%
    14:00 +32°C° 0 mm 5 mps 759 mmHg 44%
    15:00 +30°C° 0 mm 6 mps 759 mmHg 48%
    16:00 +29°C° 0 mm 6 mps 759 mmHg 53%
    17:00 +28°C° 0 mm 6 mps 759 mmHg 58%
    18:00 +27°C° 0 mm 6 mps 759 mmHg 61%
    19:00 +27°C° 0 mm 6 mps 759 mmHg 63%
    20:00 +26°C° 0 mm 6 mps 759 mmHg 65%
    21:00 +26°C° 0.1 mm 5 mps 759 mmHg 65%
    22:00 +26°C° 0.1 mm 5 mps 759 mmHg 66%
    23:00 +26°C° 0.1 mm 4 mps 759 mmHg 66%

    Tomorrow, 22 October, Tuesday

    Time Temperature Precipitation Wind Pressure Humidity
    00:00 +26°C° 0.4 mm 3 mps 759 mmHg 65%
    01:00 +25°C° 0.4 mm 3 mps 758 mmHg 65%
    02:00 +25°C° 0.4 mm 3 mps 758 mmHg 64%
    03:00 +24°C° 0.1 mm 2 mps 758 mmHg 65%
    04:00 +24°C° 0.1 mm 2 mps 758 mmHg 66%
    05:00 +24°C° 0.1 mm 2 mps 758 mmHg 66%
    06:00 +25°C° 0.1 mm 3 mps 758 mmHg 64%
    07:00 +26°C° 0.1 mm 3 mps 758 mmHg 61%
    08:00 +27°C° 0.1 mm 4 mps 758 mmHg 59%
    09:00 +28°C° 0 mm 4 mps 758 mmHg 56%
    10:00 +29°C° 0 mm 4 mps 758 mmHg 52%
    11:00 +29°C° 0 mm 4 mps 758 mmHg 49%
    12:00 +29°C° 0 mm 4 mps 758 mmHg 48%
    13:00 +29°C° 0 mm 5 mps 758 mmHg 48%
    14:00 +29°C° 0 mm 5 mps 757 mmHg 47%
    15:00 +28°C° 0 mm 5 mps 757 mmHg 49%
    16:00 +28°C° 0 mm 4 mps 757 mmHg 52%
    17:00 +27°C° 0 mm 4 mps 757 mmHg 54%
    18:00 +27°C° 0 mm 4 mps 757 mmHg 58%
    19:00 +26°C° 0 mm 5 mps 758 mmHg 61%
    20:00 +26°C° 0 mm 5 mps 758 mmHg 64%
    21:00 +26°C° 0.3 mm 5 mps 758 mmHg 66%
    22:00 +25°C° 0.3 mm 4 mps 758 mmHg 67%
    23:00 +25°C° 0.3 mm 3 mps 758 mmHg 69%

    Day after tomorrow, 23 October, Wednesday

    Time Temperature Precipitation Wind Pressure Humidity
    00:00 +25°C° 0.4 mm 3 mps 758 mmHg 68%
    01:00 +25°C° 0.4 mm 4 mps 758 mmHg 67%
    02:00 +25°C° 0.4 mm 4 mps 757 mmHg 66%
    03:00 +25°C° 0.8 mm 4 mps 758 mmHg 66%
    04:00 +24°C° 0.8 mm 3 mps 758 mmHg 67%
    05:00 +24°C° 0.8 mm 3 mps 758 mmHg 68%
    06:00 +25°C° 0.2 mm 3 mps 758 mmHg 65%
    07:00 +25°C° 0.2 mm 3 mps 758 mmHg 62%
    08:00 +26°C° 0.2 mm 2 mps 758 mmHg 59%
    09:00 +27°C° 0 mm 3 mps 758 mmHg 54%
    10:00 +28°C° 0 mm 3 mps 759 mmHg 49%
    11:00 +29°C° 0 mm 3 mps 759 mmHg 44%
    12:00 +29°C° 0 mm 4 mps 758 mmHg 44%
    13:00 +29°C° 0 mm 4 mps 758 mmHg 43%
    14:00 +29°C° 0 mm 5 mps 757 mmHg 43%
    15:00 +28°C° 0 mm 5 mps 757 mmHg 47%
    16:00 +28°C° 0 mm 5 mps 758 mmHg 51%
    17:00 +27°C° 0 mm 6 mps 758 mmHg 55%
    18:00 +27°C° 0 mm 5 mps 758 mmHg 56%
    19:00 +26°C° 0 mm 4 mps 758 mmHg 58%
    20:00 +26°C° 0 mm 4 mps 759 mmHg 59%
    21:00 +25°C° 0 mm 4 mps 759 mmHg 60%
    22:00 +25°C° 0 mm 3 mps 759 mmHg 60%
    23:00 +25°C° 0 mm 3 mps 759 mmHg 61%

    24 October, Thursday

    Time Temperature Precipitation Wind Pressure Humidity
    00:00 +24°C° 0 mm 2 mps 759 mmHg 62%
    01:00 +24°C° 0 mm 2 mps 758 mmHg 64%
    02:00 +23°C° 0 mm 2 mps 758 mmHg 65%
    03:00 +23°C° 0 mm 2 mps 758 mmHg 66%
    04:00 +23°C° 0 mm 2 mps 758 mmHg 68%
    05:00 +21°C° 0 mm 2 mps 758 mmHg 69%
    06:00 +23°C° 0 mm 2 mps 759 mmHg 66%
    07:00 +24°C° 0 mm 2 mps 759 mmHg 62%
    08:00 +25°C° 0 mm 3 mps 759 mmHg 58%
    09:00 +26°C° 0 mm 2 mps 759 mmHg 52%
    10:00 +27°C° 0 mm 2 mps 759 mmHg 47%
    11:00 +28°C° 0 mm 2 mps 759 mmHg 42%
    12:00 +29°C° 0 mm 3 mps 759 mmHg 41%
    13:00 +29°C° 0 mm 3 mps 759 mmHg 40%
    14:00 +29°C° 0 mm 4 mps 758 mmHg 39%
    15:00 +28°C° 0 mm 4 mps 758 mmHg 42%
    16:00 +28°C° 0 mm 5 mps 758 mmHg 45%
    17:00 +27°C° 0 mm 5 mps 758 mmHg 49%
    18:00 +26°C° 0 mm 5 mps 759 mmHg 51%
    19:00 +26°C° 0 mm 4 mps 759 mmHg 53%
    20:00 +26°C° 0 mm 4 mps 759 mmHg 55%
    21:00 +25°C° 0 mm 3 mps 759 mmHg 56%
    22:00 +25°C° 0 mm 2 mps 759 mmHg 57%
    23:00 +25°C° 0 mm 2 mps 759 mmHg 58%

    25 October, Friday

    Time Temperature Precipitation Wind Pressure Humidity
    00:00 +24°C° 0.1 mm 2 mps 759 mmHg 60%
    01:00 +24°C° 0.1 mm 2 mps 759 mmHg 62%
    02:00 +23°C° 0.1 mm 2 mps 759 mmHg 64%
    03:00 +23°C° 0.1 mm 2 mps 759 mmHg 66%
    04:00 +21°C° 0.1 mm 2 mps 759 mmHg 68%
    05:00 +21°C° 0.1 mm 3 mps 759 mmHg 69%
    06:00 +22°C° 0 mm 3 mps 759 mmHg 65%
    07:00 +24°C° 0 mm 3 mps 760 mmHg 61%
    08:00 +25°C° 0 mm 3 mps 760 mmHg 57%
    09:00 +26°C° 0 mm 3 mps 760 mmHg 52%
    10:00 +27°C° 0 mm 3 mps 760 mmHg 46%
    11:00 +28°C° 0 mm 3 mps 760 mmHg 41%
    12:00 +28°C° 0 mm 3 mps 760 mmHg 42%
    13:00 +29°C° 0 mm 4 mps 760 mmHg 42%
    14:00 +29°C° 0 mm 5 mps 759 mmHg 43%
    15:00 +28°C° 0 mm 5 mps 759 mmHg 47%
    16:00 +27°C° 0 mm 5 mps 760 mmHg 51%
    17:00 +27°C° 0 mm 5 mps 760 mmHg 55%
    18:00 +26°C° 0 mm 5 mps 760 mmHg 58%
    19:00 +26°C° 0 mm 5 mps 760 mmHg 61%
    20:00 +25°C° 0 mm 5 mps 760 mmHg 64%
    21:00 +25°C° 0 mm 4 mps 760 mmHg 66%
    22:00 +23°C° 0 mm 4 mps 760 mmHg 68%
    23:00 +23°C° 0 mm 4 mps 760 mmHg 70%

    26 October, Saturday

    Time Temperature Precipitation Wind Pressure Humidity
    00:00 +24°C° 0 mm 3 mps 760 mmHg 72%
    01:00 +22°C° 0 mm 3 mps 760 mmHg 75%
    02:00 +22°C° 0 mm 3 mps 760 mmHg 77%
    03:00 +22°C° 0 mm 3 mps 760 mmHg 79%
    04:00 +22°C° 0 mm 3 mps 760 mmHg 80%
    05:00 +21°C° 0 mm 3 mps 760 mmHg 81%
    06:00 +22°C° 0 mm 3 mps 761 mmHg 77%
    07:00 +24°C° 0 mm 3 mps 761 mmHg 72%
    08:00 +25°C° 0 mm 4 mps 761 mmHg 67%
    09:00 +26°C° 0 mm 4 mps 761 mmHg 60%
    10:00 +27°C° 0 mm 3 mps 761 mmHg 53%
    11:00 +28°C° 0 mm 3 mps 762 mmHg 46%
    12:00 +28°C° 0 mm 4 mps 761 mmHg 47%
    13:00 +28°C° 0 mm 5 mps 761 mmHg 48%
    14:00 +28°C° 0 mm 6 mps 760 mmHg 50%
    15:00 +28°C° 0 mm 6 mps 760 mmHg 54%
    16:00 +27°C° 0 mm 6 mps 760 mmHg 59%
    17:00 +26°C° 0 mm 6 mps 760 mmHg 64%
    18:00 +26°C° 0 mm 6 mps 761 mmHg 65%
    19:00 +25°C° 0 mm 5 mps 761 mmHg 65%
    20:00 +25°C° 0 mm 4 mps 761 mmHg 66%
    21:00 +25°C° 0 mm 4 mps 761 mmHg 67%
    22:00 +25°C° 0 mm 3 mps 761 mmHg 67%
    23:00 +24°C° 0 mm 2 mps 761 mmHg 68%

    27 October, Sunday

    Time Temperature Precipitation Wind Pressure Humidity
    00:00 +24°C° 0 mm 2 mps 761 mmHg 69%
    01:00 +24°C° 0 mm 2 mps 761 mmHg 70%
    02:00 +23°C° 0 mm 1 mps 761 mmHg 71%
    03:00 +23°C° 0 mm 1 mps 761 mmHg 73%
    04:00 +23°C° 0 mm 1 mps 761 mmHg 74%
    05:00 +22°C° 0 mm 1 mps 761 mmHg 75%
    06:00 +23°C° 0 mm 2 mps 761 mmHg 71%
    07:00 +24°C° 0 mm 2 mps 761 mmHg 67%
    08:00 +25°C° 0 mm 2 mps 761 mmHg 63%
    09:00 +26°C° 0 mm 2 mps 761 mmHg 57%
    10:00 +27°C° 0 mm 2 mps 761 mmHg 51%
    11:00 +28°C° 0 mm 3 mps 761 mmHg 46%
    12:00 +28°C° 0 mm 3 mps 761 mmHg 46%
    13:00 +28°C° 0 mm 4 mps 761 mmHg 47%
    14:00 +28°C° 0 mm 5 mps 760 mmHg 48%
    15:00 +27°C° 0 mm 5 mps 760 mmHg 50%
    16:00 +27°C° 0 mm 5 mps 760 mmHg 53%
    17:00 +26°C° 0 mm 5 mps 760 mmHg 56%
    18:00 +25°C° 0 mm 5 mps 761 mmHg 57%
    19:00 +25°C° 0 mm 4 mps 761 mmHg 59%
    20:00 +25°C° 0 mm 4 mps 761 mmHg 61%
    21:00 +23°C° 0 mm 4 mps 761 mmHg 61%
    22:00 +24°C° 0 mm 3 mps 761 mmHg 62%
    23:00 +24°C° 0 mm 3 mps 761 mmHg 63%
    Show more